Regional Weather Roundup
Issued by NWS Goodland, KS

Home | Current Version | Previous Version | Text Only | Print | Product List | Glossary On
Versions: 1 2 3 4 5 6 7 8 9 10 11 12 13 14 15 16 17 18 19 20 21 22 23 24 25 26 27 28 29 30 31 32 33 34 35 36 37 38 39 40 41 42 43 44 45 46 47 48 49 50
000
ASUS43 KGLD 230708
RWRGLD

GOODLAND FORECAST AREA HOURLY WEATHER ROUNDUP
NATIONAL WEATHER SERVICE GOODLAND KS
1200 AM MST THU FEB 23 2017

...OFFICIAL OBSERVATIONS...

CITY           SKY/WX    TMP DP  RH WIND       PRES   REMARKS
GOODLAND KS    CLOUDY    42  22  44 E13       29.66F
HILL CITY KS   CLOUDY    47  31  53 E12       29.70F
IMPERIAL NEB   CLEAR     36  27  69 NE14      29.74S
MCCOOK NEB     CLEAR     37  28  70 NE10      29.72S
AKRON CO       CLEAR     33  17  51 NE15      29.69F
BURLINGTON CO  CLOUDY    47  22  37 E12       29.66F
LIMON CO       CLOUDY    29  16  58 NW9       29.67F
$$

...UNOFFICIAL OBSERVATIONS...

CITY           SKY/WX    TMP DP  RH WIND       PRES   REMARKS
LENORA KS        N/A     43  32  65 E7          N/A
NORTON KS      CLEAR     39  27  60 NE10      29.70
SHARON SPRINGS   N/A     46  26  45 CALM        N/A
TRIBUNE KS     CLOUDY    48  27  43 CALM      29.67F
TRENTON NEB      N/A     39  32  76 NE8         N/A
KIT CARSON CO    N/A     46  25  43 MISG        N/A
YUMA CO        FAIR      30  18  59 N12       29.70S
$$




USA.gov is the U.S. government's official web portal to all federal, state and local government web resources and services.